Time[GMT],dominant_wave_period[s](0m),mean_wave_direction[degrees](0m),max_wave_height[m](0m),significant_wave_height[m](0m),mean_wave_direction_spread[degrees](0m)
2019-08-19 16:00,7.4,59.50,1.66,1.00,27.00
2019-08-19 17:00,7.1,62.50,1.57,1.04,28.00
2019-08-19 18:00,6.5,59.50,2.08,1.03,25.00
2019-08-19 19:00,7.4,58.50,2.19,1.01,30.00
2019-08-19 20:00,7.4,59.50,1.66,1.01,34.00
2019-08-19 21:00,6.9,57.50,1.66,1.03,31.00
2019-08-19 22:00,7.1,61.50,1.36,0.97,31.00
2019-08-19 23:00,6.7,57.50,1.51,0.90,32.00
2019-08-20 00:00,7.1,57.50,1.79,0.98,31.00
2019-08-20 01:00,6.9,58.50,1.79,1.00,32.00
2019-08-20 02:00,6.3,59.50,1.62,1.04,29.00
2019-08-20 03:00,4.9,60.50,1.93,1.00,31.00
2019-08-20 04:00,4.8,56.50,1.90,1.07,30.00
2019-08-20 05:00,5.7,56.50,1.72,0.99,29.00
2019-08-20 06:00,4.9,56.50,1.85,1.07,30.00
2019-08-20 07:00,5.4,59.50,2.04,1.02,29.00
2019-08-20 08:00,6.1,56.50,1.88,1.02,28.00
2019-08-20 09:00,6.7,57.50,1.57,0.98,30.00
2019-08-20 10:00,5.1,56.50,1.60,0.92,31.00
2019-08-20 11:00,5.6,56.50,1.50,0.90,34.00
2019-08-20 12:00,5.4,52.50,1.77,0.97,30.00
2019-08-20 13:00,5.0,55.50,1.47,0.95,29.00
2019-08-20 14:00,5.7,56.50,1.48,0.93,28.00
2019-08-20 15:00,5.3,58.50,2.01,1.02,29.00
2019-08-20 16:00,6.1,62.50,1.52,0.95,31.00
2019-08-20 17:00,5.1,62.50,1.52,0.98,32.00
2019-08-20 18:00,6.1,59.50,1.67,1.00,26.00
2019-08-20 19:00,6.5,59.50,1.66,0.99,29.00
2019-08-20 20:00,5.7,60.50,1.77,0.91,31.00
2019-08-20 21:00,7.1,62.50,1.83,1.01,28.00
2019-08-20 22:00,6.1,59.50,1.51,1.00,29.00
2019-08-20 23:00,5.4,60.50,1.58,0.95,28.00
2019-08-21 00:00,6.7,59.50,1.93,1.01,30.00
2019-08-21 01:00,4.9,54.50,1.61,1.01,31.00
2019-08-21 02:00,5.4,61.50,1.86,1.04,32.00
2019-08-21 03:00,6.5,60.50,1.71,0.96,33.00
2019-08-21 04:00,5.7,63.50,1.55,0.95,33.00
2019-08-21 05:00,5.7,63.50,1.54,1.06,29.00
2019-08-21 06:00,5.6,61.50,1.57,0.96,30.00
2019-08-21 07:00,5.3,62.50,1.53,1.01,29.00
2019-08-21 08:00,5.1,63.50,1.47,0.91,31.00
2019-08-21 09:00,5.0,61.50,1.44,0.89,32.00
2019-08-21 10:00,4.3,59.50,1.66,0.98,30.00
2019-08-21 11:00,4.9,57.50,1.41,0.89,32.00
2019-08-21 12:00,4.9,60.50,1.95,1.04,35.00
2019-08-21 13:00,4.7,63.50,1.62,0.99,35.00
2019-08-21 14:00,5.4,58.50,1.77,0.96,36.00
2019-08-21 15:00,5.0,62.50,1.96,0.95,35.00
2019-08-21 16:00,5.0,61.50,1.46,0.99,34.00
2019-08-21 17:00,5.3,61.50,1.60,1.00,32.00
2019-08-21 18:00,5.0,63.50,1.67,1.02,33.00
2019-08-21 19:00,5.0,69.50,1.77,1.15,31.00
2019-08-21 20:00,4.3,68.50,1.74,1.17,31.00
2019-08-21 21:00,5.4,59.50,1.60,1.04,36.00
2019-08-21 22:00,5.1,59.50,1.66,1.01,32.00
2019-08-21 23:00,5.1,57.50,1.64,0.99,33.00
2019-08-22 00:00,5.9,59.50,1.83,1.03,32.00
2019-08-22 01:00,5.6,57.50,1.63,1.03,28.00
2019-08-22 02:00,5.1,57.50,1.35,0.91,32.00
2019-08-22 03:00,5.9,55.50,1.61,0.96,35.00
2019-08-22 04:00,5.4,57.50,1.56,0.95,29.00
2019-08-22 05:00,5.9,55.50,1.36,0.89,30.00
2019-08-22 06:00,5.7,58.50,1.38,0.88,31.00
2019-08-22 07:00,5.1,57.50,1.49,0.80,31.00
2019-08-22 08:00,5.7,56.50,1.32,0.80,31.00
2019-08-22 09:00,5.6,53.50,1.25,0.73,33.00
2019-08-22 10:00,10.5,53.50,1.22,0.77,30.00
2019-08-22 11:00,5.4,50.50,1.35,0.78,29.00
2019-08-22 12:00,5.7,49.50,1.40,0.82,29.00
2019-08-22 13:00,5.3,50.50,1.24,0.79,34.00
2019-08-22 14:00,5.6,52.50,1.14,0.81,30.00
2019-08-22 15:00,6.3,56.50,1.56,0.88,30.00
2019-08-22 16:00,6.1,61.50,1.81,1.02,31.00
2019-08-22 17:00,5.7,61.50,1.57,0.93,29.00
2019-08-22 18:00,6.5,64.50,1.76,1.07,26.00
2019-08-22 19:00,5.9,62.50,1.89,1.16,27.00
2019-08-22 20:00,6.1,58.50,1.91,1.18,32.00
2019-08-22 21:00,6.7,64.50,1.89,1.21,27.00
2019-08-22 22:00,5.6,62.50,2.52,1.11,27.00
2019-08-22 23:00,6.9,55.50,1.76,1.12,26.00
2019-08-23 00:00,6.5,60.50,2.01,1.04,27.00
2019-08-23 01:00,7.1,58.50,1.91,1.06,26.00
2019-08-23 02:00,6.7,58.50,1.65,1.06,28.00
2019-08-23 03:00,6.7,58.50,1.74,1.14,25.00
2019-08-23 04:00,6.3,58.50,1.86,1.14,28.00
2019-08-23 05:00,6.3,60.50,1.99,1.14,24.00
2019-08-23 06:00,6.9,60.50,2.06,1.18,25.00
2019-08-23 07:00,5.7,60.50,1.68,1.08,27.00
2019-08-23 08:00,5.6,60.50,2.11,1.11,26.00
2019-08-23 09:00,7.1,58.50,1.68,1.05,26.00
2019-08-23 10:00,6.7,62.50,1.87,1.18,28.00
2019-08-23 11:00,6.3,53.50,1.60,1.05,30.00
2019-08-23 12:00,7.4,58.50,1.75,1.09,31.00
2019-08-23 13:00,6.7,61.50,1.78,1.19,28.00
2019-08-23 14:00,6.7,62.50,2.80,1.17,31.00
2019-08-23 15:00,6.3,61.50,2.07,1.23,29.00
2019-08-23 16:00,5.6,59.50,2.06,1.22,29.00
2019-08-23 17:00,6.3,62.50,2.13,1.20,29.00
2019-08-23 18:00,13.3,58.50,1.88,1.13,30.00
2019-08-23 19:00,5.7,64.50,1.71,1.12,30.00
2019-08-23 20:00,6.5,62.50,1.94,1.11,29.00
2019-08-23 21:00,13.3,57.50,1.92,1.08,29.00
2019-08-23 22:00,7.4,58.50,1.63,1.06,30.00
2019-08-23 23:00,4.9,55.50,1.47,1.00,29.00
2019-08-24 00:00,8.3,54.50,1.54,0.95,29.00
2019-08-24 01:00,6.5,55.50,1.79,1.02,27.00
2019-08-24 02:00,5.3,55.50,1.54,1.00,26.00
2019-08-24 03:00,7.4,54.50,1.78,1.09,25.00
2019-08-24 04:00,5.4,57.50,2.10,1.07,26.00
2019-08-24 05:00,5.9,54.50,1.63,1.10,28.00
2019-08-24 06:00,6.1,53.50,1.91,1.15,28.00
2019-08-24 07:00,6.1,56.50,1.74,1.12,27.00
2019-08-24 08:00,5.6,58.50,1.71,1.11,27.00
2019-08-24 09:00,5.4,59.50,1.68,1.08,26.00
2019-08-24 10:00,6.5,54.50,2.05,1.08,29.00
2019-08-24 11:00,6.1,57.50,1.69,1.08,28.00
2019-08-24 12:00,6.1,56.50,1.46,1.02,28.00
2019-08-24 13:00,6.7,57.50,1.79,1.00,27.00
2019-08-24 14:00,6.3,58.50,1.68,0.98,29.00
2019-08-24 15:00,5.6,61.50,1.98,1.02,31.00
2019-08-24 16:00,5.9,59.50,1.59,0.92,32.00
2019-08-24 17:00,4.8,60.50,1.84,1.04,32.00
2019-08-24 18:00,5.4,58.50,1.76,1.00,31.00
2019-08-24 19:00,5.3,58.50,1.61,0.97,33.00
2019-08-24 20:00,7.4,58.50,1.53,0.98,31.00
2019-08-24 21:00,4.2,58.50,1.39,0.92,29.00
2019-08-24 22:00,4.9,57.50,1.40,0.92,31.00
2019-08-24 23:00,4.3,58.50,1.28,0.85,32.00
2019-08-25 00:00,4.2,55.50,1.27,0.78,30.00
2019-08-25 01:00,8.3,53.50,1.20,0.79,30.00
2019-08-25 02:00,6.5,54.50,1.39,0.83,30.00
2019-08-25 03:00,5.7,54.50,1.37,0.77,28.00
2019-08-25 04:00,6.9,55.50,1.23,0.79,29.00
2019-08-25 05:00,5.7,60.50,1.48,0.79,28.00
2019-08-25 06:00,6.9,58.50,1.44,0.84,29.00
2019-08-25 07:00,4.9,59.50,1.41,0.85,27.00
2019-08-25 08:00,7.1,59.50,1.36,0.88,28.00
2019-08-25 09:00,4.9,58.50,1.20,0.87,26.00
2019-08-25 10:00,6.9,59.50,1.51,0.86,28.00
2019-08-25 11:00,4.8,60.50,1.73,0.91,28.00
2019-08-25 12:00,4.3,63.50,1.52,0.93,28.00
2019-08-25 13:00,5.7,65.50,1.36,0.89,30.00
2019-08-25 14:00,4.8,65.50,1.56,0.97,30.00
2019-08-25 15:00,5.3,66.50,1.71,0.98,29.00
2019-08-25 16:00,4.4,62.50,1.44,0.90,30.00
2019-08-25 17:00,5.4,63.50,1.43,0.91,30.00
2019-08-25 18:00,5.6,62.50,1.58,0.89,29.00
2019-08-25 19:00,5.6,61.50,1.49,0.92,30.00
2019-08-25 20:00,5.0,62.50,1.42,0.89,30.00
2019-08-25 21:00,5.6,63.50,1.42,0.90,30.00
2019-08-25 22:00,5.6,62.50,1.53,0.85,28.00
2019-08-25 23:00,6.5,65.50,1.19,0.82,31.00
2019-08-26 00:00,5.6,61.50,1.41,0.80,30.00
2019-08-26 01:00,5.0,61.50,1.24,0.72,29.00
2019-08-26 02:00,5.9,61.50,1.19,0.66,31.00
2019-08-26 03:00,6.9,59.50,1.20,0.70,28.00
2019-08-26 04:00,6.7,58.50,1.19,0.72,28.00
2019-08-26 05:00,6.5,58.50,1.14,0.72,29.00
2019-08-26 06:00,4.3,58.50,1.40,0.75,27.00
2019-08-26 07:00,7.4,59.50,1.25,0.76,27.00
2019-08-26 08:00,7.1,61.50,1.50,0.80,28.00
2019-08-26 09:00,4.7,62.50,1.33,0.82,28.00
2019-08-26 10:00,7.4,63.50,1.43,0.86,28.00
2019-08-26 11:00,4.7,63.50,1.47,0.84,31.00
2019-08-26 12:00,4.5,62.50,1.30,0.82,30.00
2019-08-26 13:00,6.9,66.50,1.29,0.79,31.00
2019-08-26 14:00,4.8,72.50,1.31,0.84,31.00
2019-08-26 15:00,4.7,66.50,1.47,0.90,31.00
2019-08-26 16:00,5.3,64.50,1.59,0.86,29.00
2019-08-26 17:00,4.7,65.50,1.38,0.81,30.00
2019-08-26 18:00,5.7,65.50,1.36,0.83,29.00
2019-08-26 19:00,4.5,65.50,1.55,0.89,28.00
2019-08-26 20:00,4.8,65.50,1.35,0.88,28.00
2019-08-26 21:00,6.9,65.50,1.41,0.84,29.00
2019-08-26 22:00,6.7,66.50,1.35,0.79,28.00
2019-08-26 23:00,6.7,63.50,1.11,0.72,35.00
2019-08-27 00:00,6.9,65.50,0.96,0.66,33.00
2019-08-27 01:00,5.9,61.50,1.00,0.71,31.00
2019-08-27 02:00,7.1,66.50,1.25,0.75,33.00
2019-08-27 03:00,3.6,66.50,1.48,0.84,33.00
2019-08-27 04:00,4.0,70.50,1.40,0.86,30.00
2019-08-27 05:00,4.9,65.50,1.35,0.79,31.00
2019-08-27 06:00,4.5,64.50,1.47,0.76,31.00
2019-08-27 07:00,4.7,62.50,1.27,0.77,29.00
2019-08-27 08:00,6.3,61.50,1.16,0.72,29.00
2019-08-27 09:00,4.2,61.50,1.13,0.72,31.00
2019-08-27 10:00,4.2,65.50,1.26,0.68,30.00
2019-08-27 11:00,4.5,62.50,1.10,0.73,37.00
2019-08-27 12:00,6.7,62.50,1.24,0.69,29.00
2019-08-27 13:00,4.9,61.50,1.16,0.72,31.00
2019-08-27 14:00,4.7,61.50,0.99,0.68,30.00
2019-08-27 15:00,4.7,62.50,1.03,0.67,34.00
2019-08-27 16:00,4.4,62.50,1.15,0.66,33.00
2019-08-27 17:00,6.9,61.50,1.10,0.63,33.00
2019-08-27 18:00,4.8,61.50,1.03,0.67,33.00
2019-08-27 19:00,6.7,60.50,1.25,0.68,31.00
2019-08-27 20:00,5.7,59.50,1.12,0.69,33.00
2019-08-27 21:00,5.1,64.50,1.21,0.77,32.00
2019-08-27 22:00,4.7,60.50,1.17,0.76,33.00
2019-08-27 23:00,4.5,62.50,1.25,0.83,33.00
2019-08-28 00:00,4.3,60.50,1.70,0.92,31.00
2019-08-28 01:00,4.9,65.50,1.54,0.99,33.00
2019-08-28 02:00,5.0,65.50,1.73,1.04,31.00
2019-08-28 03:00,5.0,64.50,1.54,0.94,30.00
2019-08-28 04:00,5.1,64.50,1.47,0.95,31.00
2019-08-28 05:00,5.4,64.50,1.59,0.95,34.00
2019-08-28 06:00,4.9,62.50,1.49,0.92,32.00
2019-08-28 07:00,5.4,66.50,1.54,0.90,31.00
2019-08-28 08:00,5.3,64.50,1.52,0.89,31.00
2019-08-28 09:00,5.1,60.50,1.43,0.95,28.00
2019-08-28 10:00,5.7,59.50,1.35,0.83,30.00
2019-08-28 11:00,5.7,64.50,1.70,0.92,30.00
2019-08-28 12:00,5.7,63.50,1.67,0.97,29.00
2019-08-28 13:00,5.1,63.50,1.53,0.92,30.00
2019-08-28 14:00,5.9,61.50,1.54,0.94,33.00
2019-08-28 15:00,5.6,60.50,1.72,1.07,25.00
2019-08-28 16:00,5.6,59.50,1.72,1.07,27.00
2019-08-28 17:00,5.6,56.50,1.57,0.91,32.00
2019-08-28 18:00,5.7,57.50,1.41,0.97,31.00
2019-08-28 19:00,5.1,54.50,1.43,0.90,29.00
2019-08-28 20:00,5.7,54.50,1.55,0.88,30.00
2019-08-28 21:00,5.6,50.50,1.40,0.93,26.00
2019-08-28 22:00,5.4,46.50,1.35,0.86,33.00
2019-08-28 23:00,9.1,58.50,2.48,1.60,23.00
2019-08-29 00:00,8.0,57.50,2.05,1.31,26.00
2019-08-29 01:00,8.0,49.50,1.53,1.13,27.00
2019-08-29 02:00,7.4,46.50,1.58,0.84,28.00
2019-08-29 03:00,7.1,39.50,1.23,0.68,31.00
2019-08-29 04:00,9.1,37.50,1.06,0.64,33.00
2019-08-29 05:00,8.7,35.50,0.90,0.61,34.00
2019-08-29 06:00,8.0,38.50,1.01,0.61,34.00
2019-08-29 07:00,6.7,26.50,0.85,0.58,37.00
2019-08-29 08:00,7.1,34.50,0.86,0.58,36.00
2019-08-29 09:00,6.7,26.50,0.97,0.59,38.00
2019-08-29 10:00,6.7,35.50,0.80,0.56,40.00
2019-08-29 11:00,6.9,33.50,0.84,0.52,41.00
2019-08-29 12:00,8.3,34.50,0.90,0.60,38.00
2019-08-29 13:00,11.8,37.50,0.81,0.57,39.00
2019-08-29 14:00,6.1,38.50,0.90,0.56,41.00
2019-08-29 15:00,11.1,31.50,1.04,0.57,43.00
2019-08-29 16:00,11.8,21.50,0.95,0.59,44.00
2019-08-29 17:00,11.1,29.50,0.87,0.58,40.00
2019-08-29 18:00,11.1,35.50,1.10,0.61,39.00
2019-08-29 19:00,11.1,46.50,1.00,0.61,38.00
2019-08-29 20:00,11.1,32.50,1.07,0.65,38.00
2019-08-29 21:00,10.5,49.50,1.52,0.75,33.00
2019-08-29 22:00,5.4,49.50,1.11,0.76,36.00
2019-08-29 23:00,8.3,45.50,1.20,0.74,38.00
2019-08-30 00:00,10.5,37.50,1.19,0.75,37.00
2019-08-30 01:00,11.1,38.50,1.41,0.68,39.00
2019-08-30 02:00,5.6,39.50,1.17,0.71,35.00
2019-08-30 03:00,10.5,31.50,0.99,0.70,38.00
2019-08-30 04:00,10.0,34.50,1.06,0.68,39.00
2019-08-30 05:00,10.5,40.50,1.09,0.66,37.00
2019-08-30 06:00,8.7,41.50,0.93,0.68,37.00
2019-08-30 07:00,9.5,44.50,1.09,0.70,38.00
2019-08-30 08:00,8.3,44.50,1.16,0.73,38.00
2019-08-30 09:00,8.7,45.50,1.15,0.75,37.00
2019-08-30 10:00,5.4,37.50,1.39,0.75,36.00
2019-08-30 11:00,9.5,43.50,1.05,0.72,37.00
2019-08-30 12:00,6.3,40.50,1.07,0.69,37.00
2019-08-30 13:00,9.5,43.50,0.99,0.66,39.00
2019-08-30 14:00,9.1,51.50,1.06,0.71,35.00
2019-08-30 15:00,8.3,43.50,0.99,0.68,34.00
2019-08-30 16:00,8.3,44.50,1.16,0.76,38.00
2019-08-30 17:00,4.3,60.50,1.31,0.83,33.00
2019-08-30 18:00,10.5,55.50,1.33,0.82,35.00
2019-08-30 19:00,4.3,58.50,1.42,0.84,37.00
2019-08-30 20:00,7.1,54.50,1.45,0.92,31.00
2019-08-30 21:00,10.5,49.50,1.22,0.80,32.00
2019-08-30 22:00,8.3,55.50,1.39,0.73,36.00
2019-08-30 23:00,10.0,49.50,1.28,0.72,34.00
2019-08-31 00:00,8.7,46.50,1.04,0.68,34.00
2019-08-31 01:00,8.7,31.50,1.36,0.69,36.00
2019-08-31 02:00,8.0,27.50,1.29,0.72,36.00
2019-08-31 03:00,8.0,16.50,1.49,0.75,35.00
2019-08-31 04:00,8.0,33.50,1.35,0.65,39.00
2019-08-31 05:00,10.0,33.50,1.00,0.65,37.00
2019-08-31 06:00,10.0,35.50,1.08,0.63,37.00
2019-08-31 07:00,8.7,33.50,1.18,0.70,34.00
2019-08-31 08:00,10.0,33.50,1.20,0.73,35.00
2019-08-31 09:00,8.3,28.50,1.13,0.70,35.00
2019-08-31 10:00,8.3,28.50,1.03,0.73,37.00
2019-08-31 11:00,9.1,28.50,1.09,0.75,38.00
2019-08-31 12:00,8.0,31.50,1.06,0.67,38.00
2019-08-31 13:00,9.5,40.50,1.18,0.79,37.00
2019-08-31 14:00,9.1,42.50,1.12,0.80,33.00
2019-08-31 15:00,8.0,39.50,1.30,0.76,35.00
2019-08-31 16:00,8.7,48.50,1.14,0.73,36.00
2019-08-31 17:00,4.4,48.50,1.15,0.77,33.00
2019-08-31 18:00,11.8,40.50,1.13,0.70,35.00
2019-08-31 19:00,11.8,45.50,1.07,0.66,39.00
2019-08-31 20:00,8.0,50.50,1.05,0.69,35.00
2019-08-31 21:00,9.1,40.50,1.17,0.72,34.00
2019-08-31 22:00,11.8,39.50,1.19,0.72,34.00
2019-08-31 23:00,11.8,41.50,1.04,0.71,35.00
2019-09-01 00:00,8.7,38.50,1.06,0.62,37.00
2019-09-01 01:00,8.7,36.50,0.92,0.58,40.00
2019-09-01 02:00,11.8,41.50,1.02,0.62,37.00
2019-09-01 03:00,10.0,37.50,1.08,0.62,37.00
2019-09-01 04:00,8.7,37.50,1.00,0.59,35.00
2019-09-01 05:00,8.3,30.50,1.02,0.60,40.00
2019-09-01 06:00,10.0,21.50,1.15,0.68,37.00
2019-09-01 07:00,9.1,18.50,1.00,0.66,38.00
2019-09-01 08:00,9.1,28.50,0.95,0.60,37.00
2019-09-01 09:00,12.5,29.50,0.89,0.54,41.00
2019-09-01 10:00,11.1,31.50,0.88,0.57,38.00
2019-09-01 11:00,9.1,22.50,1.04,0.61,41.00
2019-09-01 12:00,10.5,30.50,0.96,0.58,43.00
2019-09-01 13:00,8.3,40.50,0.91,0.54,41.00
2019-09-01 14:00,11.8,40.50,1.16,0.61,36.00
2019-09-01 15:00,12.5,49.50,1.00,0.60,36.00
2019-09-01 16:00,10.5,49.50,1.16,0.65,35.00
2019-09-01 17:00,12.5,48.50,1.03,0.63,38.00
2019-09-01 18:00,12.5,43.50,1.04,0.62,34.00
2019-09-01 19:00,11.8,46.50,0.93,0.63,35.00
2019-09-01 20:00,6.9,57.50,1.43,0.68,37.00
2019-09-01 21:00,7.4,52.50,1.30,0.72,36.00
2019-09-01 22:00,8.3,46.50,1.22,0.72,37.00
2019-09-01 23:00,8.3,47.50,1.16,0.71,36.00
2019-09-02 00:00,12.5,42.50,1.17,0.72,36.00
2019-09-02 01:00,7.7,50.50,1.14,0.65,37.00
2019-09-02 02:00,9.1,44.50,1.04,0.66,35.00
2019-09-02 03:00,8.7,42.50,0.98,0.65,36.00
2019-09-02 04:00,8.3,42.50,0.93,0.66,37.00
2019-09-02 05:00,8.0,40.50,0.97,0.66,37.00
2019-09-02 06:00,8.3,41.50,1.04,0.71,36.00
2019-09-02 07:00,9.1,46.50,1.23,0.62,38.00
2019-09-02 08:00,8.0,41.50,1.14,0.69,40.00
2019-09-02 09:00,8.3,40.50,1.05,0.69,36.00
2019-09-02 10:00,8.7,48.50,1.14,0.72,33.00
2019-09-02 11:00,8.3,40.50,1.29,0.68,37.00
2019-09-02 12:00,8.3,41.50,1.23,0.72,33.00
2019-09-02 13:00,8.0,40.50,1.20,0.73,37.00
2019-09-02 14:00,8.7,45.50,1.05,0.70,34.00
2019-09-02 15:00,7.7,35.50,1.17,0.76,37.00
2019-09-02 16:00,8.3,45.50,1.36,0.70,37.00
2019-09-02 17:00,8.0,44.50,1.43,0.79,38.00
2019-09-02 18:00,8.7,56.50,1.44,0.82,36.00
2019-09-02 19:00,8.3,52.50,1.55,1.02,35.00
2019-09-02 20:00,7.7,55.50,1.64,0.93,37.00
2019-09-02 21:00,8.3,54.50,1.70,0.90,34.00
2019-09-02 22:00,8.7,50.50,1.60,0.86,36.00
2019-09-02 23:00,8.0,49.50,1.20,0.87,37.00
2019-09-03 00:00,8.0,48.50,1.50,0.81,34.00
2019-09-03 01:00,9.1,34.50,1.47,0.80,36.00
2019-09-03 02:00,8.0,39.50,1.07,0.70,41.00
2019-09-03 03:00,7.7,46.50,1.13,0.78,37.00
2019-09-03 04:00,8.3,43.50,1.28,0.76,40.00
2019-09-03 05:00,8.0,48.50,1.17,0.71,38.00
2019-09-03 06:00,8.0,41.50,1.31,0.79,38.00
2019-09-03 07:00,8.0,40.50,1.22,0.73,37.00
2019-09-03 08:00,7.7,43.50,1.08,0.70,38.00
2019-09-03 09:00,8.0,43.50,1.14,0.68,38.00
2019-09-03 10:00,7.7,38.50,1.19,0.69,38.00
2019-09-03 11:00,7.7,39.50,1.18,0.70,35.00
2019-09-03 12:00,7.4,41.50,1.19,0.65,38.00
2019-09-03 13:00,8.0,41.50,1.16,0.72,37.00
2019-09-03 14:00,7.1,49.50,1.02,0.69,36.00
2019-09-03 15:00,6.9,52.50,1.38,0.74,38.00
2019-09-03 16:00,8.0,54.50,1.40,0.83,34.00
2019-09-03 17:00,4.1,62.50,1.48,0.89,34.00
2019-09-03 18:00,7.7,63.50,1.60,0.91,33.00
2019-09-03 19:00,4.2,62.50,1.55,0.96,33.00
2019-09-03 20:00,7.7,66.50,1.34,0.87,30.00
2019-09-03 21:00,4.3,62.50,1.40,0.88,30.00
2019-09-03 22:00,4.3,66.50,1.66,0.96,30.00
2019-09-03 23:00,7.4,61.50,1.73,0.88,33.00
2019-09-04 00:00,4.7,64.50,1.47,0.92,30.00
2019-09-04 01:00,4.9,59.50,1.68,0.80,30.00
2019-09-04 02:00,5.0,57.50,1.55,0.86,33.00
2019-09-04 03:00,8.0,61.50,1.30,0.89,28.00
2019-09-04 04:00,4.5,62.50,1.46,0.95,28.00
2019-09-04 05:00,5.3,61.50,1.59,1.00,26.00
2019-09-04 06:00,5.7,62.50,1.63,0.98,28.00
2019-09-04 07:00,5.0,64.50,1.59,0.98,28.00
2019-09-04 08:00,4.5,65.50,1.51,0.93,28.00
2019-09-04 09:00,5.6,64.50,1.75,0.95,28.00
2019-09-04 10:00,5.1,62.50,1.50,0.98,28.00
2019-09-04 11:00,6.1,60.50,1.81,0.89,30.00
2019-09-04 12:00,5.4,57.50,1.40,0.88,29.00
2019-09-04 13:00,5.7,60.50,1.89,0.93,28.00
2019-09-04 14:00,5.4,59.50,1.72,0.92,31.00
2019-09-04 15:00,5.6,62.50,1.53,0.99,28.00
2019-09-04 16:00,6.1,62.50,1.55,0.88,30.00
2019-09-04 17:00,6.1,66.50,1.53,0.99,31.00
2019-09-04 18:00,4.8,65.50,1.82,1.05,29.00
2019-09-04 19:00,5.4,63.50,1.56,0.98,30.00
2019-09-04 20:00,6.3,60.50,1.54,0.94,30.00
2019-09-04 21:00,5.6,61.50,1.28,0.84,32.00
2019-09-04 22:00,5.1,57.50,1.50,0.86,32.00
2019-09-04 23:00,6.7,57.50,1.50,0.84,32.00
2019-09-05 00:00,5.6,58.50,1.29,0.84,31.00
2019-09-05 01:00,6.9,59.50,1.47,0.83,33.00
2019-09-05 02:00,6.3,62.50,1.39,0.90,30.00
2019-09-05 03:00,5.6,60.50,1.33,0.84,32.00
2019-09-05 04:00,5.6,61.50,1.34,0.86,31.00
2019-09-05 05:00,5.6,62.50,1.51,0.92,29.00
2019-09-05 06:00,6.3,55.50,1.35,0.92,31.00
2019-09-05 07:00,5.0,60.50,1.64,0.86,31.00
2019-09-05 08:00,5.3,62.50,1.50,0.90,31.00
2019-09-05 09:00,5.6,63.50,1.36,0.93,33.00
2019-09-05 10:00,5.4,65.50,1.61,0.91,32.00
2019-09-05 11:00,5.0,60.50,1.61,0.96,30.00
2019-09-05 12:00,5.4,56.50,1.51,0.93,33.00
2019-09-05 13:00,5.1,55.50,1.77,0.93,33.00
2019-09-05 14:00,5.7,60.50,1.44,0.90,31.00
2019-09-05 15:00,5.4,58.50,1.54,0.97,30.00
2019-09-05 16:00,5.3,55.50,1.72,0.97,30.00
2019-09-05 17:00,5.6,57.50,1.51,0.96,30.00
2019-09-05 18:00,4.7,58.50,1.57,0.93,31.00
2019-09-05 19:00,4.9,58.50,1.52,0.92,33.00
2019-09-05 20:00,4.8,58.50,1.52,0.97,33.00
2019-09-05 21:00,6.9,52.50,1.58,0.90,35.00
2019-09-05 22:00,5.9,52.50,1.48,0.91,33.00
2019-09-05 23:00,5.0,49.50,1.45,0.95,29.00
2019-09-06 00:00,6.1,49.50,1.40,0.86,34.00
2019-09-06 01:00,5.9,51.50,1.35,0.93,31.00
2019-09-06 02:00,6.7,52.50,1.76,0.91,30.00
2019-09-06 03:00,5.7,52.50,1.39,0.88,31.00
2019-09-06 04:00,7.7,54.50,1.38,0.89,30.00
2019-09-06 05:00,6.7,51.50,1.44,0.86,30.00
2019-09-06 06:00,6.1,51.50,1.31,0.91,28.00
2019-09-06 07:00,6.7,49.50,1.38,0.90,29.00
2019-09-06 08:00,6.3,49.50,1.42,0.92,28.00
2019-09-06 09:00,11.8,46.50,1.56,0.96,28.00
2019-09-06 10:00,5.3,44.50,1.39,0.92,31.00
2019-09-06 11:00,7.1,44.50,1.53,0.94,29.00
2019-09-06 12:00,13.3,30.50,1.19,0.87,32.00
2019-09-06 13:00,12.5,24.50,1.26,0.89,30.00
2019-09-06 14:00,12.5,23.50,1.53,0.95,28.00
2019-09-06 15:00,11.8,15.50,1.31,0.93,30.00
2019-09-06 16:00,12.5,34.50,1.75,0.91,32.00
2019-09-06 17:00,12.5,16.50,1.70,0.99,30.00
2019-09-06 18:00,12.5,20.50,1.82,0.97,28.00
2019-09-06 19:00,12.5,10.50,1.42,0.91,30.00
2019-09-06 20:00,11.8,20.50,1.56,0.87,31.00
2019-09-06 21:00,11.8,16.50,1.40,0.80,30.00
2019-09-06 22:00,11.8,15.50,1.32,0.87,30.00
2019-09-06 23:00,11.8,23.50,1.39,0.75,30.00
2019-09-07 00:00,11.8,20.50,1.46,0.73,34.00
2019-09-07 01:00,11.8,22.50,1.07,0.70,32.00
2019-09-07 02:00,10.5,34.50,0.95,0.62,36.00
2019-09-07 03:00,11.8,17.50,1.36,0.76,33.00
2019-09-07 04:00,13.3,30.50,1.12,0.74,32.00
2019-09-07 05:00,8.0,32.50,1.21,0.80,30.00
2019-09-07 06:00,13.3,22.50,1.26,0.87,27.00
2019-09-07 07:00,11.8,10.50,1.19,0.87,29.00
2019-09-07 08:00,12.5,24.50,1.31,0.86,30.00
2019-09-07 09:00,11.8,7.50,1.43,0.93,28.00
2019-09-07 10:00,11.8,4.50,1.47,1.00,29.00
2019-09-07 11:00,11.8,0.50,1.46,0.94,30.00
2019-09-07 12:00,13.3,4.50,1.39,0.85,35.00
2019-09-07 13:00,11.1,358.50,1.66,0.93,33.00
2019-09-07 14:00,13.3,358.50,1.53,0.95,32.00
2019-09-07 15:00,12.5,11.50,1.68,0.94,32.00
2019-09-07 16:00,13.3,354.50,1.63,1.05,29.00
2019-09-07 17:00,12.5,12.50,1.67,0.90,34.00
2019-09-07 18:00,10.5,8.50,1.47,0.97,33.00
2019-09-07 19:00,11.1,6.50,1.63,0.96,34.00
2019-09-07 20:00,11.8,354.50,1.82,1.15,33.00
2019-09-07 21:00,11.1,357.50,1.57,1.02,32.00
2019-09-07 22:00,10.0,6.50,1.44,0.98,35.00
2019-09-07 23:00,13.3,1.50,1.51,0.90,33.00
2019-09-08 00:00,10.5,6.50,1.58,0.98,32.00
2019-09-08 01:00,13.3,351.50,1.73,1.03,32.00
2019-09-08 02:00,10.5,3.50,1.76,1.02,34.00
2019-09-08 03:00,12.5,16.50,1.45,0.86,35.00
2019-09-08 04:00,12.5,357.50,1.70,1.10,32.00
2019-09-08 05:00,12.5,353.50,1.72,1.13,29.00
2019-09-08 06:00,12.5,6.50,1.53,0.97,33.00
2019-09-08 07:00,11.8,12.50,1.39,0.91,35.00
2019-09-08 08:00,11.8,12.50,1.73,1.00,33.00
2019-09-08 09:00,11.8,358.50,1.83,1.10,31.00
2019-09-08 10:00,11.8,357.50,1.65,1.06,32.00
2019-09-08 11:00,11.1,2.50,1.62,0.89,35.00
2019-09-08 12:00,10.5,9.50,1.38,0.88,37.00
2019-09-08 13:00,11.1,6.50,1.21,0.94,37.00
2019-09-08 14:00,11.1,358.50,1.51,0.94,35.00
2019-09-08 15:00,11.1,4.50,1.42,0.96,39.00
2019-09-08 16:00,10.5,11.50,1.40,0.93,39.00
2019-09-08 17:00,11.1,10.50,1.53,0.88,42.00
2019-09-08 18:00,10.5,9.50,1.52,0.98,40.00
2019-09-08 19:00,10.5,2.50,1.49,1.02,38.00
2019-09-08 20:00,10.0,2.50,1.73,1.09,39.00
2019-09-08 21:00,10.0,7.50,1.47,1.00,41.00
2019-09-08 22:00,11.1,6.50,1.75,1.03,37.00
2019-09-08 23:00,11.8,8.50,1.70,0.92,40.00
2019-09-09 00:00,12.5,8.50,1.83,1.21,39.00
2019-09-09 01:00,11.8,3.50,1.49,1.11,37.00
2019-09-09 02:00,12.5,1.50,1.72,1.17,33.00
2019-09-09 03:00,14.3,5.50,2.10,1.42,29.00
2019-09-09 04:00,11.8,4.50,2.16,1.25,32.00
2019-09-09 05:00,13.3,1.50,2.27,1.39,27.00
2019-09-09 06:00,13.3,0.50,1.80,1.15,35.00
2019-09-09 07:00,12.5,5.50,1.96,1.29,34.00
2019-09-09 08:00,13.3,1.50,1.80,1.19,33.00
2019-09-09 09:00,12.5,3.50,1.97,1.30,32.00
2019-09-09 10:00,12.5,9.50,1.61,1.13,35.00
2019-09-09 11:00,11.8,10.50,2.04,1.33,36.00
2019-09-09 12:00,12.5,8.50,1.68,1.19,34.00
2019-09-09 13:00,12.5,7.50,2.08,1.22,35.00
2019-09-09 14:00,13.3,15.50,2.18,1.14,36.00
2019-09-09 15:00,11.8,11.50,1.56,1.05,36.00
2019-09-09 16:00,12.5,5.50,1.94,1.22,34.00
2019-09-09 17:00,11.1,9.50,1.96,1.18,36.00
2019-09-09 18:00,11.8,7.50,1.68,1.05,44.00
2019-09-09 19:00,11.1,19.50,2.03,1.14,41.00
2019-09-09 20:00,13.3,17.50,1.93,1.16,38.00
2019-09-09 21:00,12.5,12.50,2.31,1.29,33.00
2019-09-09 22:00,12.5,18.50,1.74,1.11,37.00
2019-09-09 23:00,12.5,13.50,1.76,1.15,36.00
2019-09-10 00:00,11.1,16.50,2.08,1.22,35.00
2019-09-10 01:00,11.1,9.50,2.07,1.38,29.00
2019-09-10 02:00,11.8,3.50,1.99,1.41,28.00
2019-09-10 03:00,11.8,17.50,2.03,1.45,31.00
2019-09-10 04:00,12.5,10.50,2.25,1.42,31.00
2019-09-10 05:00,11.8,10.50,1.97,1.31,30.00
2019-09-10 06:00,12.5,9.50,2.32,1.51,28.00
2019-09-10 07:00,10.5,11.50,2.19,1.54,27.00
2019-09-10 08:00,12.5,11.50,2.20,1.40,30.00
2019-09-10 09:00,11.1,15.50,2.16,1.40,30.00
2019-09-10 10:00,12.5,10.50,2.43,1.43,27.00
2019-09-10 11:00,12.5,11.50,2.22,1.49,26.00
2019-09-10 12:00,12.5,13.50,1.87,1.27,32.00
2019-09-10 13:00,12.5,9.50,2.26,1.45,27.00
2019-09-10 14:00,11.8,14.50,1.99,1.16,34.00
2019-09-10 15:00,11.1,17.50,1.79,1.24,30.00
2019-09-10 16:00,12.5,13.50,2.14,1.37,29.00
2019-09-10 17:00,11.8,9.50,1.90,1.25,29.00
2019-09-10 18:00,11.8,11.50,2.17,1.26,33.00
2019-09-10 19:00,11.8,7.50,1.90,1.26,31.00
2019-09-10 20:00,11.8,8.50,2.26,1.37,28.00
2019-09-10 21:00,12.5,9.50,2.12,1.28,31.00
2019-09-10 22:00,11.1,14.50,1.98,1.16,34.00
2019-09-10 23:00,12.5,6.50,3.12,1.50,29.00
2019-09-11 00:00,11.8,8.50,2.33,1.39,29.00
2019-09-11 01:00,11.1,21.50,1.65,1.16,31.00
2019-09-11 02:00,11.8,15.50,2.25,1.16,32.00